Weather History for Phnom Penh, Cambodia

Change the Weather History Date:

Monday, March 4, 2013

  Actual Average Record
Temperature  
Mean Temperature 86 °F -  
Max Temperature 95 °F 90 °F 96 °F (2003)
Min Temperature 76 °F 76 °F 69 °F (2008)
Cooling Degree Days 20    
Growing Degree Days 36 (Base 50)    
Moisture  
Dew Point 68 °F    
Average Humidity 55    
Maximum Humidity 100    
Minimum Humidity 32    
Precipitation  
Precipitation 0.00 in - - ()
Sea Level Pressure  
Sea Level Pressure 29.89 in    
Wind  
Wind Speed 7 mph ()    
Max Wind Speed 17 mph    
Max Gust Speed -    
Visibility 6.0 miles    
Events Rain    
Averages and records for this station are not official NWS values.
T = Trace of Precipitation, MM = Missing Value Source: Averaged Metar Reports

Daily Weather History Graph

Daily Weather History Graph

Search for Another Location

Airport:

Trip Planner

Search our weather history database for the weather conditions in past years. The results will help you decide how hot, cold, wet, or windy it might be!

Date:

Astronomy

Mar. 04, 2013 Rise Set
Actual Time 6:14 AM ICT 6:10 PM ICT
Civil Twilight 5:53 AM ICT 6:31 PM ICT
Nautical Twilight 5:28 AM ICT 6:56 PM ICT
Astronomical Twilight 5:03 AM ICT 7:20 PM ICT
Moon No Moon Rise 11:04 AM ICT (3/4)
Length of Visible Light 12h 38m
Length of Day
11h 56m
Waning Gibbous, 58% of the Moon is Illuminated
Mar 4
Waning Gibbous
Mar 5
Last Quarter
Mar 12
New
Mar 20
First Quarter
Mar 27
Full

Hourly Weather History & Observations

Time (ICT) Temp. Heat Index Dew Point Humidity Pressure Visibility Wind Dir Wind Speed Gust Speed Precip Events Conditions
12:00 AM 82.4 °F 87.2 °F 71.6 °F 70% 29.92 in 6.2 mi South 4.6 mph - N/A   Scattered Clouds
12:30 AM 80.6 °F 83.9 °F 69.8 °F 70% 29.92 in 6.2 mi South 3.5 mph - N/A   Scattered Clouds
1:00 AM 80.6 °F 83.9 °F 69.8 °F 70% 29.92 in 6.2 mi SE 4.6 mph - N/A   Scattered Clouds
6:30 AM 78.8 °F - 71.6 °F 78% 29.92 in 6.2 mi NNE 6.9 mph - N/A   Scattered Clouds
7:00 AM 77 °F - 77 °F 100% 29.82 in 6 mi SE 4.5 mph - -   Partly Cloudy
7:00 AM 78.8 °F - 71.6 °F 78% 29.92 in 6.2 mi NNE 5.8 mph - N/A   Scattered Clouds
7:30 AM 80.6 °F 84.6 °F 71.6 °F 74% 29.95 in 6.2 mi NE 9.2 mph - N/A   Scattered Clouds
8:00 AM 82.4 °F 87.2 °F 71.6 °F 70% 29.95 in 6.2 mi NNE 9.2 mph - N/A   Scattered Clouds
8:30 AM 84.2 °F 88.4 °F 69.8 °F 62% 29.95 in 6.2 mi North 6.9 mph - N/A   Scattered Clouds
9:00 AM 86.0 °F 89.4 °F 68.0 °F 55% 29.98 in 6.2 mi NNE 11.5 mph - N/A   Scattered Clouds
9:30 AM 87.8 °F 91.4 °F 68.0 °F 52% 29.98 in 6.2 mi NNE 13.8 mph - N/A   Scattered Clouds
10:00 AM 87.8 °F 91.4 °F 68.0 °F 52% 29.98 in 6.2 mi North 13.8 mph - N/A   Partly Cloudy
10:30 AM 87.8 °F 90.4 °F 66.2 °F 49% 29.95 in 6.2 mi NNE 11.5 mph - N/A   Partly Cloudy
11:00 AM 89.6 °F 92.2 °F 66.2 °F 46% 29.95 in 6.2 mi NE 10.4 mph - N/A   Scattered Clouds
11:30 AM 91.4 °F 93.2 °F 64.4 °F 41% 29.92 in 6.2 mi ENE 15.0 mph - N/A   Partly Cloudy
12:00 PM 91.4 °F 93.2 °F 64.4 °F 41% 29.89 in 6.2 mi East 13.8 mph - N/A   Partly Cloudy
12:30 PM 93.2 °F 94.9 °F 64.4 °F 38% 29.89 in 6.2 mi ENE 13.8 mph - N/A   Scattered Clouds
1:00 PM 93.2 °F 94.1 °F 62.6 °F 36% 29.89 in 6.2 mi ENE 12.7 mph - N/A   Scattered Clouds
1:30 PM 93.2 °F 94.1 °F 62.6 °F 36% 29.86 in 6.2 mi East 17.3 mph - N/A   Scattered Clouds
2:00 PM 95.0 °F 97.0 °F 64.4 °F 36% 29.83 in 6.2 mi East 9.2 mph - N/A   Scattered Clouds
2:30 PM 95.0 °F 96.0 °F 62.6 °F 34% 29.83 in 6.2 mi ENE 15.0 mph - N/A   Scattered Clouds
3:00 PM 95.0 °F 95.2 °F 60.8 °F 32% 29.80 in 6.2 mi East 12.7 mph - N/A   Scattered Clouds
3:30 PM 95.0 °F 95.2 °F 60.8 °F 32% 29.80 in 6.2 mi East 12.7 mph - N/A   Scattered Clouds
4:00 PM 93.2 °F 94.1 °F 62.6 °F 36% 29.80 in 6.2 mi NE 9.2 mph - N/A   Scattered Clouds
4:30 PM 93.2 °F 94.9 °F 64.4 °F 38% 29.83 in 5.6 mi NE 17.3 mph - N/A Rain Light Rain
5:00 PM 87.8 °F 90.4 °F 66.2 °F 49% 29.83 in 5.6 mi NNW 4.6 mph - N/A   Mostly Cloudy
5:30 PM 87.8 °F 91.4 °F 68.0 °F 52% 29.83 in 5.6 mi ENE 2.3 mph - N/A   Mostly Cloudy
6:00 PM 87.8 °F 92.6 °F 69.8 °F 55% 29.83 in 5.6 mi South 3.5 mph - N/A   Mostly Cloudy
7:00 PM 87.8 °F 90.4 °F 66.2 °F 49% 29.86 in 5.6 mi SSW 1.2 mph - N/A   Mostly Cloudy
7:30 PM 87.8 °F 91.4 °F 68.0 °F 52% 29.86 in 5.6 mi NNW 4.6 mph - N/A   Scattered Clouds
8:00 PM 87.8 °F 92.6 °F 69.8 °F 55% 29.89 in 5.6 mi NNE 4.6 mph - N/A   Scattered Clouds
8:30 PM 86.0 °F 90.4 °F 69.8 °F 58% 29.89 in 5.6 mi North 4.6 mph - N/A   Scattered Clouds
9:00 PM 86.0 °F 90.4 °F 69.8 °F 58% 29.89 in 5.6 mi North 4.6 mph - N/A   Scattered Clouds
9:30 PM 84.2 °F 89.6 °F 71.6 °F 66% 29.92 in 5.6 mi North 5.8 mph - N/A   Scattered Clouds
10:00 PM 84.2 °F 89.6 °F 71.6 °F 66% 29.92 in 5.6 mi North 8.1 mph - N/A   Scattered Clouds
10:30 PM 84.2 °F 90.9 °F 73.4 °F 70% 29.92 in 5.6 mi North 6.9 mph - N/A   Scattered Clouds
11:00 PM 82.4 °F 87.2 °F 71.6 °F 70% 29.92 in 5.6 mi North 10.4 mph - N/A   Scattered Clouds
11:30 PM 80.6 °F 83.9 °F 69.8 °F 70% 29.92 in 5.6 mi North 12.7 mph - N/A   Scattered Clouds